Change the Weather History Date:

Thursday, June 20, 2013

  Actual Average Record
Temperature  
Mean Temperature 53 °F 62 °F  
Max Temperature 76 °F 81 °F 97 °F (1900)
Min Temperature 30 °F 42 °F 30 °F (2013)
Degree Days  
Heating Degree Days 12 4  
Month to date heating degree days 67 146  
Since 1 June heating degree days 67 146  
Since 1 July heating degree days 7140 7493  
Cooling Degree Days 0 1  
Month to date cooling degree days 14 8  
Year to date cooling degree days 14 9  
Since 1 June cooling degree days 14 8  
Growing Degree Days 2 (Base 50)    
Moisture  
Dew Point 13 °F    
Average Humidity 25    
Maximum Humidity 43    
Minimum Humidity 6    
Precipitation  
Precipitation 0.00 in 0.02 in 0.33 in (1948)
Month to date precipitation T 0.53  
Year to date precipitation 3.11 4.96  
Snow  
Snow 0.00 in 0.00 in 0.00 in (1893)
Month to date snowfall 0.0 0.1  
Since 1 June snowfall 0.0 0.1  
Since 1 July snowfall 65.0 50.8  
Snow Depth 0.00 in    
Sea Level Pressure  
Sea Level Pressure 29.82 in    
Wind  
Wind Speed 8 mph (SW)    
Max Wind Speed 24 mph    
Max Gust Speed 31 mph    
Visibility 10 miles    
Events      
T = Trace of Precipitation, MM = Missing Value Source: NWS Daily Summary

Daily Weather History Graph

Daily Weather History Graph

Search for Another Location

Airport or City:

Trip Planner

Search our weather history database for the weather conditions in past years. The results will help you decide how hot, cold, wet, or windy it might be!

Date:

Astronomy

Jun. 20, 2013 Rise Set
Actual Time 5:12 AM PDT 8:09 PM PDT
Civil Twilight 4:40 AM PDT 8:41 PM PDT
Nautical Twilight 3:59 AM PDT 9:22 PM PDT
Astronomical Twilight 3:12 AM PDT 10:09 PM PDT
Moon 5:17 PM PDT (6/20) 2:41 AM PDT (6/20)
Length of Visible Light 16h 01m
Length of Day
14h 56m
Waxing Gibbous, 89% of the Moon is Illuminated
Jun 20
Waxing Gibbous
Jun 23
Full
Jun 29
Last Quarter
Jul 8
New
Jul 15
First Quarter

Hourly Weather History & Observations

Time (PDT) Temp. Windchill Dew Point Humidity Pressure Visibility Wind Dir Wind Speed Gust Speed Precip Events Conditions
12:53 AM 46.0 °F 42.5 °F 9.0 °F 22% 29.82 in 10.0 mi NNW 6.9 mph - N/A   Clear
1:53 AM 39.9 °F 34.5 °F 9.0 °F 28% 29.85 in 10.0 mi WNW 8.1 mph - N/A   Clear
2:53 AM 44.1 °F 39.5 °F 14.0 °F 30% 29.83 in 10.0 mi North 8.1 mph - N/A   Clear
3:53 AM 37.9 °F 34.4 °F 14.0 °F 38% 29.85 in 10.0 mi SSE 4.6 mph - N/A   Clear
4:53 AM 32.0 °F 25.6 °F 10.0 °F 40% 29.89 in 10.0 mi SSE 6.9 mph - N/A   Clear
5:53 AM 32.0 °F 24.8 °F 12.0 °F 44% 29.91 in 10.0 mi SSE 8.1 mph - N/A   Clear
6:53 AM 44.1 °F - 18.0 °F 35% 29.88 in 10.0 mi Calm Calm - N/A   Clear
7:53 AM 48.9 °F - 21.0 °F 33% 29.88 in 10.0 mi NNE 6.9 mph - N/A   Clear
8:53 AM 55.0 °F - 23.0 °F 29% 29.87 in 10.0 mi North 9.2 mph - N/A   Clear
9:53 AM 57.9 °F - 19.9 °F 23% 29.87 in 10.0 mi Variable 3.5 mph - N/A   Clear
10:53 AM 61.0 °F - 18.0 °F 19% 29.84 in 10.0 mi Variable 3.5 mph - N/A   Clear
11:53 AM 64.9 °F - 17.1 °F 16% 29.81 in 10.0 mi South 8.1 mph - N/A   Clear
12:53 PM 68.0 °F - 15.1 °F 13% 29.78 in 10.0 mi ESE 8.1 mph - N/A   Clear
1:53 PM 73.0 °F - 10.0 °F 9% 29.77 in 10.0 mi WSW 13.8 mph 19.6 mph N/A   Clear
2:53 PM 75.9 °F - 9.0 °F 8% 29.74 in 10.0 mi SSW 21.9 mph 31.1 mph N/A   Clear
3:53 PM 73.9 °F - 10.0 °F 9% 29.75 in 10.0 mi WSW 13.8 mph 25.3 mph N/A   Clear
4:53 PM 75.0 °F - 10.9 °F 9% 29.76 in 10.0 mi SSW 11.5 mph - N/A   Clear
5:19 PM 75.2 °F - 5.0 °F 7% 29.96 in 10.0 mi SW 15.0 mph 25.3 mph N/A   Clear
5:53 PM 73.9 °F - 8.1 °F 8% 29.76 in 10.0 mi SSW 15.0 mph 24.2 mph N/A   Clear
6:53 PM 73.0 °F - 3.0 °F 6% 29.72 in 10.0 mi WSW 8.1 mph 18.4 mph N/A   Clear
7:53 PM 66.9 °F - 8.1 °F 10% 29.74 in 10.0 mi South 9.2 mph - N/A   Clear
8:53 PM 64.0 °F - 10.0 °F 12% 29.74 in 10.0 mi WSW 8.1 mph - N/A   Clear
9:53 PM 55.9 °F - 10.0 °F 16% 29.79 in 10.0 mi West 9.2 mph - N/A   Clear
10:53 PM 55.9 °F - 18.0 °F 23% 29.80 in 10.0 mi NW 8.1 mph - N/A   Clear
11:53 PM 50.0 °F - 16.0 °F 26% 29.81 in 10.0 mi North 4.6 mph - N/A   Clear